[[{"header":{"parameterUnit":"m.s-1","parameterCategory":1,"la1":30.2991,"la2":30.254,"lo1":-89.0895,"lo2":-89.0444,"dy":0.0017,"dx":0.0017,"nx":28,"ny":28,"refTime":"2025-08-07T03:00:00:Z","depth":0,"parameterNumber":2,"parameterNumberName":"U-component_of_WINDS"},"data":[0,0,0,0,0,0,0,0,0,0,0,0,0,0,0,0,0,0,0,0,0,0,0,0,0,0,0,0,0,0,0,0,0,0,0,0,0,0,0,0,0,0,0,0,0,0,0,0,0,0,0,0,0,0,0,0,0,0,-0.5642,-0.5643,0,-0.5745,-0.5747,-0.5748,-0.5789,-0.5789,-0.5789,-0.5789,-0.5902,-0.5905,-0.5908,0,0,0,0,0,0,0,0,0,0,0,0,0,-0.5488,-0.549,-0.5642,-0.5643,-0.5645,-0.5745,-0.5747,-0.5748,-0.579,-0.5789,-0.5789,-0.5789,-0.5901,-0.5904,-0.5908,0,0,0,0,0,0,0,0,0,0,0,0,0,-0.5569,-0.5491,-0.5642,-0.5677,-0.5681,-0.5745,-0.5747,-0.5748,-0.579,-0.5789,-0.5789,-0.5788,-0.5899,-0.5904,-0.5909,-0.5947,0,0,-0.5924,-0.5926,0,0,0,0,0,0,0,0,-0.5565,-0.5575,-0.5671,-0.5675,-0.568,-0.5754,-0.5734,-0.5815,-0.579,-0.5749,-0.5789,-0.5788,-0.5853,-0.5862,-0.5882,-0.5952,-0.5957,-0.5924,-0.5927,-0.5929,-0.5931,0,0,0,0,0,0,0,-0.5559,-0.5571,-0.5683,-0.5672,-0.5678,-0.569,-0.5702,-0.5749,-0.5802,-0.5752,-0.5756,-0.5767,-0.5856,-0.5878,-0.5885,-0.5959,-0.5924,-0.5928,-0.5931,-0.5933,-0.6067,-0.6067,0,0,0,0,0,0,-0.5547,-0.5566,-0.568,-0.5686,-0.562,-0.5693,-0.5706,-0.5731,-0.5802,-0.5812,-0.5767,-0.5768,-0.5869,-0.588,-0.589,-0.594,-0.5929,-0.5934,-0.5937,-0.6066,-0.6067,-0.6068,0,0,0,0,0,0,-0.5543,-0.5556,-0.5676,-0.5627,-0.5643,-0.5696,-0.5724,-0.5733,-0.5755,-0.5813,-0.5823,-0.5779,-0.587,-0.5883,-0.5932,-0.5944,-0.5936,-0.594,-0.6065,-0.6066,-0.6067,-0.604,0,0,0,0,0,0,-0.5538,-0.5555,-0.5568,-0.5627,-0.5645,-0.5714,-0.5725,-0.5735,-0.5762,-0.5765,-0.5827,-0.5837,-0.587,-0.5925,-0.5937,-0.5951,-0.5944,-0.6065,-0.6066,-0.6067,-0.604,-0.6039,-0.6039,0,0,0,0,0,-0.5533,-0.5557,-0.5568,-0.5582,-0.5663,-0.5715,-0.5726,-0.5761,-0.5763,-0.5778,-0.5815,-0.5835,-0.594,-0.5929,-0.5944,-0.5959,-0.6064,-0.6065,-0.6067,-0.604,-0.6039,-0.6039,0,0,0,0,0,0,-0.5501,-0.5566,-0.5579,-0.5623,-0.5663,-0.5722,-0.5742,-0.576,-0.5802,-0.5803,-0.5848,-0.5862,-0.5908,-0.5939,-0.5925,-0.6,-0.6004,-0.6008,-0.5979,-0.5979,-0.5979,-0.5971,-0.5948,0,0,0,0,0,-0.5499,-0.5533,-0.5589,-0.5623,-0.5642,-0.5688,-0.5712,-0.5736,-0.578,-0.5798,-0.5839,-0.5883,-0.5927,-0.5954,-0.5997,-0.6044,-0.6059,-0.6062,-0.6062,-0.6061,-0.6065,-0.6093,-0.6096,-0.6072,-0.6072,-0.6072,0,0,-0.5495,-0.5535,-0.5554,-0.5617,-0.5651,-0.5688,-0.5702,-0.5741,-0.5769,-0.5805,-0.5853,-0.5885,-0.5938,-0.5986,-0.601,-0.6013,-0.6075,-0.6063,-0.6062,-0.6066,-0.6095,-0.6097,-0.6099,-0.6073,-0.6073,-0.6073,0,0,-0.5508,-0.554,-0.5572,-0.5605,-0.5655,-0.5686,-0.5694,-0.575,-0.5772,-0.5821,-0.5848,-0.5885,-0.5958,-0.5994,-0.6022,-0.6049,-0.6069,-0.6062,-0.6061,-0.6088,-0.609,-0.6092,-0.6103,-0.6106,-0.6065,-0.6065,-0.6065,0,-0.5498,-0.5552,-0.5587,-0.5623,-0.5651,-0.5682,-0.5717,-0.5748,-0.581,-0.583,-0.5832,-0.5925,-0.5963,-0.6021,-0.6027,-0.6048,-0.606,-0.6055,-0.6087,-0.6089,-0.6091,-0.6102,-0.6106,-0.6064,-0.6064,-0.6064,-0.6064,0,-0.5538,-0.5575,-0.5595,-0.5652,-0.5682,-0.5718,-0.576,-0.5787,-0.5808,-0.5839,-0.589,-0.5936,-0.5989,-0.6005,-0.6027,-0.6067,-0.6067,-0.6077,-0.6082,-0.6092,-0.6103,-0.6107,-0.6062,-0.6063,-0.6063,-0.6063,0,0,-0.5534,-0.5609,-0.5616,-0.5642,-0.57,-0.5731,-0.5769,-0.5818,-0.5841,-0.5884,-0.5918,-0.5979,-0.5989,-0.6021,-0.6047,-0.6071,-0.6091,-0.6079,-0.6081,-0.6081,-0.6139,-0.6132,-0.6136,-0.6104,-0.6105,-0.6106,-0.6135,0,-0.5555,-0.562,-0.5653,-0.5706,-0.5742,-0.5772,-0.5806,-0.5846,-0.5876,-0.5913,-0.5948,-0.5991,-0.6,-0.602,-0.6044,-0.6083,-0.6103,-0.6081,-0.6139,-0.614,-0.6125,-0.6141,-0.6133,-0.6159,-0.6139,-0.614,-0.6141,0,-0.5588,-0.5628,-0.5683,-0.5737,-0.5753,-0.5782,-0.5831,-0.5865,-0.5912,-0.5933,-0.5968,-0.5994,-0.6038,-0.6038,-0.61,-0.6084,-0.611,-0.6132,-0.6134,-0.6142,-0.6142,-0.6151,-0.6168,-0.6172,-0.6148,-0.6147,-0.6147,0,-0.5581,-0.5648,-0.569,-0.5712,-0.5776,-0.5795,-0.5823,-0.587,-0.5898,-0.5942,-0.5961,-0.6009,-0.6036,-0.6075,-0.6114,-0.6111,-0.6173,-0.6176,-0.6193,-0.6192,-0.6206,-0.6205,-0.6228,-0.622,-0.622,-0.622,-0.622,0,-0.5601,-0.5634,-0.5688,-0.5714,-0.5753,-0.5791,-0.5829,-0.586,-0.5901,-0.5936,-0.5966,-0.5998,-0.6047,-0.6087,-0.6118,-0.6165,-0.6177,-0.6197,-0.6205,-0.6195,-0.6192,-0.6213,-0.6213,-0.6221,-0.6221,-0.6221,-0.622,0,-0.56,-0.5637,-0.5685,-0.5741,-0.5755,-0.5782,-0.5831,-0.5859,-0.589,-0.5933,-0.5946,-0.5997,-0.6044,-0.6087,-0.6151,-0.6172,-0.6221,-0.623,-0.6204,-0.6209,-0.6223,-0.6222,-0.6262,-0.627,-0.6255,-0.6255,-0.6255,0,-0.5611,-0.5637,-0.5695,-0.5719,-0.5745,-0.5784,-0.5812,-0.5851,-0.588,-0.5936,-0.5958,-0.6007,-0.6049,-0.6124,-0.6168,-0.6218,-0.623,-0.624,-0.6238,-0.6227,-0.6232,-0.623,-0.6234,-0.6241,-0.6241,-0.6241,-0.624,0,-0.5627,-0.5644,-0.5682,-0.5727,-0.5759,-0.5797,-0.5836,-0.5855,-0.5902,-0.5933,-0.5981,-0.6013,-0.6077,-0.6127,-0.6181,-0.6213,-0.6236,-0.6241,-0.6248,-0.6238,-0.6222,-0.6232,-0.6205,-0.624,-0.624,-0.624,-0.624,-0.624,-0.5634,-0.5658,-0.5703,-0.5745,-0.5778,-0.5813,-0.5842,-0.5877,-0.5916,-0.597,-0.5992,-0.6041,-0.6089,-0.6164,-0.6196,-0.6237,-0.6241,-0.625,-0.6253,-0.6255,-0.6254,-0.6214,-0.6247,-0.6247,-0.6247,-0.6247,-0.6247,0,-0.5653,-0.5682,-0.572,-0.5773,-0.5806,-0.5821,-0.5866,-0.5893,-0.5935,-0.5977,-0.6017,-0.6073,-0.6121,-0.6169,-0.622,-0.6244,-0.6256,-0.6256,-0.6256,-0.6263,-0.6247,-0.6236,-0.6246,-0.6246,-0.6246,-0.6246,-0.6246,-0.6246,-0.5666,-0.5709,-0.5731,-0.5792,-0.5822,-0.5868,-0.5893,-0.5927,-0.596,-0.602,-0.606,-0.6089,-0.6134,-0.6189,-0.6235,-0.6248,-0.6267,-0.6265,-0.6281,-0.6265,-0.6264,-0.6264,-0.6254,-0.6268,-0.6268,-0.6294,-0.6294,-0.6294]},{"header":{"parameterUnit":"m.s-1","parameterCategory":1,"la1":30.2991,"la2":30.254,"lo1":-89.0895,"lo2":-89.0444,"dy":0.0017,"dx":0.0017,"nx":28,"ny":28,"refTime":"2025-08-07T03:00:00:Z","depth":0,"parameterNumber":3,"parameterNumberName":"V-component_of_WINDS"},"data":[0,0,0,0,0,0,0,0,0,0,0,0,0,0,0,0,0,0,0,0,0,0,0,0,0,0,0,0,0,0,0,0,0,0,0,0,0,0,0,0,0,0,0,0,0,0,0,0,0,0,0,0,0,0,0,0,0,0,0.8721,0.8722,0,0.8735,0.8735,0.8736,0.8744,0.8744,0.8744,0.8744,0.8757,0.8758,0.8758,0,0,0,0,0,0,0,0,0,0,0,0,0,0.87,0.87,0.8721,0.8722,0.8722,0.8735,0.8735,0.8736,0.8744,0.8744,0.8744,0.8744,0.8757,0.8758,0.8758,0,0,0,0,0,0,0,0,0,0,0,0,0,0.8711,0.87,0.8721,0.8728,0.8728,0.8735,0.8735,0.8736,0.8744,0.8744,0.8744,0.8744,0.8757,0.8758,0.8758,0.876,0,0,0.8759,0.876,0,0,0,0,0,0,0,0,0.871,0.8712,0.8727,0.8727,0.8728,0.8738,0.8733,0.8744,0.8744,0.8738,0.8744,0.8744,0.8751,0.8752,0.8754,0.876,0.8761,0.8759,0.876,0.876,0.876,0,0,0,0,0,0,0,0.871,0.8711,0.8727,0.8727,0.8728,0.8729,0.8731,0.8735,0.8744,0.8739,0.8739,0.8741,0.8751,0.8754,0.8755,0.8761,0.8759,0.876,0.876,0.876,0.8766,0.8766,0,0,0,0,0,0,0.8708,0.8711,0.8726,0.8727,0.8719,0.8729,0.8731,0.8735,0.8744,0.8745,0.8741,0.8741,0.8753,0.8754,0.8755,0.8756,0.876,0.876,0.8761,0.8766,0.8766,0.8766,0,0,0,0,0,0,0.8708,0.871,0.8726,0.8719,0.8721,0.873,0.8733,0.8735,0.8738,0.8745,0.8747,0.8742,0.8753,0.8754,0.8758,0.8757,0.8761,0.8761,0.8766,0.8766,0.8766,0.8759,0,0,0,0,0,0,0.8707,0.8709,0.8711,0.8719,0.8722,0.8729,0.8733,0.8735,0.8738,0.8739,0.8747,0.8748,0.8753,0.8757,0.8758,0.8757,0.8761,0.8767,0.8766,0.8766,0.8759,0.8758,0.8758,0,0,0,0,0,0.8706,0.8708,0.8711,0.8713,0.8724,0.8729,0.8731,0.8737,0.8738,0.8739,0.8744,0.8748,0.8756,0.8757,0.8759,0.8758,0.8767,0.8766,0.8766,0.8759,0.8758,0.8758,0,0,0,0,0,0,0.87,0.871,0.8712,0.8717,0.8722,0.8731,0.8732,0.8736,0.874,0.8741,0.8747,0.8749,0.8751,0.8755,0.8756,0.8759,0.8762,0.8762,0.8756,0.8755,0.8755,0.8754,0.8762,0,0,0,0,0,0.8699,0.8703,0.8711,0.8715,0.8717,0.8724,0.8727,0.8731,0.8736,0.8738,0.8743,0.8748,0.8751,0.8754,0.8757,0.8759,0.876,0.8759,0.8759,0.8758,0.8758,0.8757,0.8756,0.8765,0.8765,0.8765,0,0,0.8698,0.8703,0.8706,0.8714,0.8718,0.8721,0.8726,0.873,0.8732,0.8739,0.8742,0.8746,0.8751,0.8753,0.8755,0.8756,0.8755,0.8758,0.8757,0.8757,0.8757,0.8756,0.8755,0.8765,0.8765,0.8765,0,0,0.8696,0.8701,0.8704,0.8708,0.8714,0.8718,0.8719,0.8726,0.8729,0.8732,0.8737,0.8739,0.8745,0.8748,0.8751,0.8748,0.8751,0.8749,0.8745,0.8744,0.8743,0.8743,0.874,0.874,0.8749,0.8749,0.8749,0,0.8693,0.8699,0.8705,0.8708,0.8711,0.8717,0.8718,0.8722,0.8729,0.873,0.8732,0.8739,0.8743,0.8745,0.8744,0.8746,0.8746,0.8748,0.8743,0.8743,0.8742,0.874,0.8739,0.8748,0.8748,0.8748,0.8748,0,0.8695,0.8698,0.8699,0.8706,0.8708,0.8711,0.8716,0.8718,0.8721,0.8725,0.8727,0.8732,0.8736,0.8737,0.874,0.8738,0.8739,0.8742,0.8745,0.8741,0.8739,0.8738,0.8748,0.8748,0.8748,0.8748,0,0,0.8691,0.8699,0.8699,0.8701,0.8707,0.871,0.8712,0.8715,0.8716,0.872,0.8721,0.8725,0.8727,0.873,0.8733,0.8733,0.8728,0.8735,0.8736,0.8733,0.8725,0.8722,0.8721,0.873,0.873,0.873,0.8724,0,0.869,0.8694,0.8698,0.8701,0.8703,0.8707,0.8708,0.8712,0.8715,0.8716,0.8719,0.8722,0.8725,0.8726,0.8726,0.8729,0.8726,0.8729,0.873,0.873,0.8728,0.872,0.8718,0.8712,0.8723,0.8723,0.8723,0,0.869,0.8693,0.8695,0.8699,0.87,0.8701,0.8704,0.8706,0.8709,0.8711,0.8712,0.8716,0.8716,0.8719,0.8719,0.8721,0.8721,0.8723,0.8723,0.8723,0.8726,0.8719,0.8711,0.8709,0.8722,0.8722,0.8722,0,0.8685,0.869,0.8691,0.8693,0.8698,0.8699,0.8701,0.8704,0.8705,0.8707,0.8707,0.8709,0.871,0.8711,0.8714,0.8716,0.8713,0.8717,0.8714,0.8714,0.8713,0.8713,0.8704,0.8714,0.8714,0.8714,0.8714,0,0.8683,0.8684,0.8689,0.869,0.8691,0.8695,0.8695,0.8697,0.8699,0.87,0.8704,0.8704,0.8708,0.8708,0.8711,0.8709,0.871,0.8711,0.8711,0.871,0.871,0.871,0.871,0.8714,0.8714,0.8714,0.8714,0,0.8679,0.8683,0.8684,0.8688,0.8689,0.8689,0.8692,0.8692,0.8694,0.8695,0.8695,0.8698,0.8699,0.8702,0.8703,0.8704,0.8701,0.8703,0.8701,0.8701,0.8697,0.8697,0.8687,0.8685,0.8698,0.8698,0.8698,0,0.8678,0.8678,0.8682,0.8682,0.8684,0.8685,0.8685,0.8689,0.8689,0.8692,0.8691,0.8692,0.8692,0.8692,0.8694,0.8694,0.8695,0.8692,0.8695,0.8693,0.8694,0.8693,0.8693,0.8691,0.8691,0.8691,0.869,0,0.8674,0.8675,0.8676,0.8677,0.8678,0.8679,0.8681,0.8681,0.8684,0.8684,0.8685,0.8685,0.8685,0.8685,0.8685,0.8686,0.8688,0.8689,0.8688,0.8687,0.8685,0.8685,0.8698,0.8689,0.869,0.869,0.869,0.869,0.867,0.867,0.8672,0.8673,0.8674,0.8674,0.8674,0.8676,0.8676,0.8676,0.8678,0.8677,0.8678,0.8678,0.8679,0.8678,0.8679,0.8678,0.8678,0.8677,0.8676,0.8685,0.8678,0.8678,0.8678,0.8678,0.8678,0,0.8666,0.8667,0.8667,0.8668,0.8668,0.867,0.8671,0.8671,0.867,0.8671,0.8671,0.8669,0.8669,0.867,0.8669,0.8668,0.8668,0.8667,0.8667,0.8667,0.8675,0.8676,0.8666,0.8666,0.8666,0.8666,0.8666,0.8666,0.8664,0.8663,0.8664,0.8663,0.8664,0.8663,0.8663,0.8663,0.8663,0.8662,0.8661,0.8662,0.8662,0.8661,0.8659,0.866,0.8659,0.8657,0.8657,0.8665,0.8666,0.8668,0.8668,0.8657,0.8657,0.8649,0.8649,0.8648]}]]